Regional Weather Roundup
Issued by NWS

Home | Current Version | Previous Version | Text Only | Print | Product List | Glossary Off
Versions: 1 2 3 4 5 6 7 8 9 10 11 12 13 14 15 16 17 18 19 20 21 22 23 24 25 26

000
ASUS45 KCYS 132110
RWRWY

WYOMING REGIONAL WEATHER ROUNDUP
NATIONAL WEATHER SERVICE CHEYENNE WY
200 PM MST WED DEC 13 2017

NOTE:  "FAIR" INDICATES FEW OR NO CLOUDS BELOW 12,000 FEET
WITH NO SIGNIFICANT WEATHER AND/OR OBSTRUCTIONS TO VISIBILITY.

WYZ001-132200-
YELLOWSTONE NATIONAL PARK

CITY           SKY/WX    TMP DP  RH WIND       PRES   REMARKS
LK YELLOWSTONE   N/A     23  21  92 E3        30.19F
W YELLOWSTONE  NOT AVBL

$$
WYZ002>013-054>058-071-098>099-132200-
NORTHERN WYOMING

CITY           SKY/WX    TMP DP  RH WIND       PRES   REMARKS
JACKSON        FLURRIES  27  22  81 CALM      30.20F
CODY           FAIR      39  20  46 VRB5      30.18R
GREYBULL       CLOUDY    37  17  44 CALM      30.16F
WORLAND        CLOUDY    40  19  43 N6        30.15R
SHERIDAN       CLOUDY    43  19  38 N16       30.13R
BUFFALO        CLOUDY    44  16  32 N15       30.10S
GILLETTE       FAIR      41  17  38 NW15      30.09R
HULETT         FAIR      37  23  56 NW12G17   30.08F WCI  30
NEWCASTLE      FAIR      37  18  44 NW20G25   30.06S WCI  27

$$
WYZ014>020-022>026-101>103-132200-
CENTRAL WYOMING

CITY           SKY/WX    TMP DP  RH WIND       PRES   REMARKS
BIG PINEY      CLOUDY    33  21  61 N26G35    30.12F WCI  20
PINEDALE       SNOW      30  28  93 N10       30.14F VSB 1/2 WCI  21
DUBOIS         CLOUDY    32  27  80 N9        30.11F WCI  24
LANDER         CLOUDY    40  19  43 N5        30.12R
RIVERTON       CLOUDY    40  20  44 N12G23    30.14R WCI  33
CASPER         CLOUDY    42  19  39 SW9       30.07F
DOUGLAS        FAIR      48  18  30 NW15      30.06F

$$
WYZ021-027>030-104>119-132200-
SOUTHERN WYOMING

CITY           SKY/WX    TMP DP  RH WIND       PRES   REMARKS
EVANSTON       PTSUNNY   40   5  23 SW12      30.15F WCI  33
FORT BRIDGER   CLOUDY    45   1  16 W23       30.15F
ROCK SPRINGS   CLOUDY    43  -4  14 W7        30.10S
DIXON          CLOUDY    38  24  56 NE3       30.12F
RAWLINS        CLOUDY    42  10  27 W14       30.07F
SARATOGA       CLOUDY    41  10  28 CALM      30.08F
LARAMIE        PTSUNNY   43  10  26 N14       30.04F
CHEYENNE       FAIR      45  11  25 N14G20    30.02F
TORRINGTON     FAIR      50  15  24 NW22G35   30.01F
PINE BLUFFS    FAIR      46  12  25 N15G25    30.04F

$$




USA.gov is the U.S. government's official web portal to all federal, state and local government web resources and services.